Find Kosmos-624

NORAD ID: 6992 Int'l Des: 1973-104 Owner: GUKOSR Country: SU operational
LEOCIRCULAR

現在のビュー

3D地球を読み込み中...

Kosmos-624について

説明を読み込み中...

次回通過

Passes for default location (London). Set your location on the main map for personalized predictions.

高度履歴

Loading altitude history...

軌道要素

1 6992U 73104H 26151.16066513 .00000012 00000-0 16317-3 0 9998
2 6992 74.0269 170.5924 0086628 226.9032 201.1461 12.61290823414747
Epoch: May 31, 2026 • Age: 11 hours

現在のステータス

高度 1460.3 km
速度 7.11 km/s
衛星直下点 -8.10°S, 55.5°E
タイプ other

Most Searched